Find Starlink 34712

NORAD ID: 64907 Int'l Des: 2025-157 Owner: SPXS Country: US Constellation: starlink operational
LEOCIRCULAR

Live-Position

3D-Globus wird geladen...

Über Starlink 34712

Beschreibung wird geladen...

Nächste Überflüge

Passes for default location (London). Set your location on the main map for personalized predictions.

Höhenverlauf

Loading altitude history...

Zweizeiliger Elementsatz

1 64907U 25157D 26104.18845899 .00009206 00000-0 32256-3 0 9999
2 64907 53.1592 180.4358 0001484 78.6500 281.4667 15.30202059 41562
Epoch: 14. Apr. 2026 • Age: 23 hours

Aktueller Status

Höhe 475.7 km
Geschwindigkeit 7.63 km/s
Subsatellitenpunkt 24.95°N, 85.78°E
Startdatum 26. Juli 2025
Alter 0.7 years
Typ internet

Technische Details

Klassifizierung Payload
Masse 575.00 kg
Trockenmasse 530.00 kg
Gesamtmasse 575.00 kg
Länge 0.30 m
Durchmesser 4.10 m
Spannweite 29.00 m
Form Box + pan
Hersteller SPXS
Bus-Typ Starlink V2MO
Phasenstatus In Orbit
Besitzer/Staat SPXS/US

Most Searched